FW1542 Weather Reports


Display with metric or nautical units.
time (UTC)temp
F
wind
direction
speed
MPH
gust
MPH
rain 1hr
in
rain 24hr
in
rain mn
in
humidity
%
barometer
mb
20260508170050 68 0 0.0 3.0 0.00 0.00 0.00 85 1011.9
20260508170044 68 48 0.0 1.0 0.00 0.00 0.00 86 1014.8
20260508164548 68 49 1.0 4.0 0.00 0.00 0.00 85 1012.1
20260508164541 68 49 1.0 4.0 0.00 0.00 0.00 86 1014.9
20260508163048 68 11 1.0 4.0 0.00 0.00 0.00 85 1011.9
20260508163046 68 11 2.0 4.0 0.00 0.00 0.00 85 1014.9
20260508161545 67 46 2.0 7.0 0.00 0.00 0.00 86 1012.2
20260508161538 67 46 2.0 7.0 0.00 0.00 0.00 86 1015.1
20260508160121 66 47 2.0 5.0 0.00 0.00 0.00 86 1012.3
20260508160054 66 47 2.0 5.0 0.00 0.00 0.00 87 1015.1
20260508154544 66 69 1.0 5.0 0.00 0.00 0.00 87 1012.5
20260508154529 66 55 1.0 5.0 0.00 0.00 0.00 88 1015.4
20260508153051 65 59 2.0 5.0 0.00 0.00 0.00 87 1012.7
20260508153030 65 60 2.0 5.0 0.00 0.00 0.00 88 1015.8
20260508151553 65 352 0.0 6.0 0.00 0.00 0.00 88 1013.0
20260508151528 65 355 0.0 5.0 0.00 0.00 0.00 88 1016.2
20260508150049 65 352 2.0 6.0 0.00 0.00 0.00 88 1013.1
20260508150033 65 355 1.0 6.0 0.00 0.00 0.00 88 1016.2
20260508144547 65 0 1.0 8.0 0.00 0.00 0.00 89 1013.0
20260508144526 65 61 1.0 8.0 0.00 0.00 0.00 89 1016.2
20260508143056 64 13 2.0 6.0 0.00 0.00 0.00 89 1012.8
20260508143031 64 13 3.0 6.0 0.00 0.00 0.00 90 1016.1
20260508141553 63 352 1.0 6.0 0.00 0.00 0.00 89 1013.2
20260508141531 63 355 0.0 6.0 0.00 0.00 0.00 89 1016.4
20260508140048 63 40 2.0 5.0 0.00 0.00 0.00 88 1013.1
20260508140023 63 40 1.0 5.0 0.00 0.00 0.00 89 1016.3
20260508134543 63 78 2.0 5.0 0.00 0.00 0.00 88 1012.9
20260508134530 63 78 2.0 5.0 0.00 0.00 0.00 88 1016.2
20260508133055 63 0 0.0 5.0 0.00 0.00 0.00 87 1012.8
20260508133023 63 76 0.0 4.0 0.00 0.00 0.00 87 1016.0
20260508131545 62 51 3.0 7.0 0.00 0.00 0.00 86 1012.6
20260508131522 63 51 2.0 6.0 0.00 0.00 0.00 87 1015.6
20260508130053 62 76 2.0 7.0 0.00 0.00 0.00 86 1012.7
20260508130022 62 77 2.0 7.0 0.00 0.00 0.00 86 1015.8
20260508124548 62 355 2.0 6.0 0.00 0.00 0.00 87 1012.9
20260508124511 62 355 2.0 6.0 0.00 0.00 0.00 87 1016.1
20260508123046 62 64 1.0 5.0 0.00 0.00 0.00 86 1012.7
20260508123012 62 58 1.0 5.0 0.00 0.00 0.00 87 1016.0
20260508121601 63 22 1.0 6.0 0.00 0.00 0.00 86 1012.9
20260508121521 63 22 1.0 6.0 0.00 0.00 0.00 86 1016.1
20260508120046 63 46 2.0 7.0 0.00 0.00 0.00 85 1013.1
20260508120007 63 53 2.0 6.0 0.00 0.00 0.00 86 1016.4
20260508114551 63 343 1.0 6.0 0.00 0.00 0.00 86 1013.5
20260508114507 63 360 1.0 6.0 0.00 0.00 0.00 86 1016.7
20260508113043 63 32 0.0 6.0 0.00 0.00 0.00 86 1013.2
20260508113006 62 32 0.0 6.0 0.00 0.00 0.00 86 1016.4
20260508111542 62 17 3.0 10.0 0.00 0.00 0.00 87 1013.0
20260508111505 63 17 3.0 6.0 0.00 0.00 0.00 88 1016.2
20260508110053 63 360 3.0 12.0 0.00 0.00 0.00 88 1012.4
20260508110005 63 5 3.0 12.0 0.00 0.00 0.00 88 1015.5
20260508104544 63 42 1.0 5.0 0.00 0.00 0.00 89 1012.8
20260508104505 63 43 1.0 5.0 0.00 0.00 0.00 90 1016.0
20260508103054 63 0 0.0 3.0 0.00 0.00 0.00 89 1013.8
20260508103013 63 306 0.0 3.0 0.00 0.00 0.00 90 1016.9
20260508101542 63 0 0.0 2.0 0.00 0.00 0.00 89 1013.1
20260508101503 63 306 0.0 1.0 0.00 0.00 0.00 89 1016.4
20260508100042 63 306 0.0 3.0 0.00 0.00 0.00 88 1012.8
20260508100002 63 306 0.0 3.0 0.00 0.00 0.00 88 1015.9
20260508094603 63 0 0.0 3.0 0.00 0.00 0.00 87 1013.1
20260508094501 63 292 0.0 2.0 0.00 0.00 0.00 87 1016.2
20260508093100 63 109 0.0 2.0 0.00 0.00 0.00 85 1015.7
20260508093041 63 109 0.0 8.0 0.00 0.00 0.00 84 1012.5
20260508091604 64 142 4.0 7.0 0.00 0.00 0.00 83 1015.6
20260508091543 64 107 3.0 7.0 0.00 0.00 0.00 82 1012.4
20260508090055 64 350 2.0 5.0 0.00 0.00 0.00 82 1016.3
20260508090045 64 350 1.0 5.0 0.00 0.00 0.00 81 1013.1
20260508084554 64 5 3.0 6.0 0.00 0.00 0.00 82 1016.3
20260508084547 64 5 3.0 7.0 0.00 0.00 0.00 82 1013.1
20260508083132 64 53 2.0 4.0 0.00 0.00 0.00 82 1016.4
20260508083117 64 53 1.0 4.0 0.00 0.00 0.00 82 1013.2
20260508081556 64 80 2.0 5.0 0.00 0.00 0.00 81 1016.3
20260508081554 64 80 3.0 5.0 0.00 0.00 0.00 81 1013.2
20260508080056 64 78 3.0 7.0 0.00 0.00 0.00 80 1016.1
20260508080052 64 78 2.0 7.0 0.00 0.00 0.00 79 1012.9
20260508074549 65 130 1.0 3.0 0.00 0.00 0.00 76 1016.7
20260508074539 65 130 1.0 3.0 0.00 0.00 0.00 76 1013.6
20260508073055 65 48 0.0 3.0 0.00 0.00 0.00 75 1017.0
20260508073052 65 48 0.0 4.0 0.00 0.00 0.00 74 1014.0
20260508071549 65 45 2.0 5.0 0.00 0.00 0.00 74 1017.2
20260508071546 65 47 2.0 5.0 0.00 0.00 0.00 74 1014.1
20260508070046 65 37 1.0 3.0 0.00 0.00 0.00 74 1017.0
20260508064603 65 36 2.0 6.0 0.00 0.00 0.00 73 1017.2
20260508063046 65 30 1.0 4.0 0.00 0.00 0.00 73 1017.4
20260508063040 65 30 1.0 4.0 0.00 0.00 0.00 72 1014.2
20260508061545 65 360 2.0 9.0 0.00 0.00 0.00 73 1017.1
20260508060045 65 46 4.0 10.0 0.00 0.00 0.00 73 1016.7
20260508054543 65 60 5.0 9.0 0.00 0.00 0.00 72 1013.5
20260508054541 65 53 5.0 9.0 0.00 0.00 0.00 73 1016.5
20260508053042 65 88 2.0 6.0 0.00 0.00 0.00 73 1014.2
20260508053037 65 88 2.0 6.0 0.00 0.00 0.00 73 1017.4
20260508051542 65 0 0.0 2.0 0.00 0.00 0.00 72 1015.2
20260508051535 65 338 0.0 2.0 0.00 0.00 0.00 73 1018.4
20260508050049 65 337 0.0 6.0 0.00 0.00 0.00 73 1014.7
20260508050041 65 337 0.0 3.0 0.00 0.00 0.00 73 1017.7
20260508044543 65 314 1.0 8.0 0.00 0.00 0.00 72 1015.1
20260508044532 65 314 1.0 4.0 0.00 0.00 0.00 73 1018.2
20260508043042 65 319 2.0 9.0 0.00 0.00 0.00 72 1014.3
20260508043035 65 319 2.0 8.0 0.00 0.00 0.00 72 1017.5
20260508041546 65 22 2.0 9.0 0.00 0.00 0.00 70 1013.3
20260508041529 65 22 2.0 9.0 0.00 0.00 0.00 71 1016.3
20260508040048 66 39 6.0 11.0 0.00 0.00 0.00 70 1012.6
20260508040033 66 39 5.0 11.0 0.00 0.00 0.00 70 1015.7
20260508034542 66 63 3.0 9.0 0.00 0.00 0.00 70 1013.6
20260508034529 66 63 2.0 9.0 0.00 0.00 0.00 70 1016.8
20260508033042 67 51 3.0 8.0 0.00 0.00 0.00 69 1013.6
20260508033028 66 53 4.0 7.0 0.00 0.00 0.00 69 1016.8
20260508031548 67 43 2.0 5.0 0.00 0.00 0.00 68 1014.2
20260508031528 67 42 3.0 5.0 0.00 0.00 0.00 69 1017.4
20260508030059 67 49 3.0 7.0 0.00 0.00 0.00 69 1014.7
20260508030027 67 27 3.0 6.0 0.00 0.00 0.00 69 1017.8
20260508024555 67 19 2.0 7.0 0.00 0.00 0.00 69 1014.6
20260508024529 67 19 1.0 6.0 0.00 0.00 0.00 69 1017.6
20260508023050 67 26 1.0 4.0 0.00 0.00 0.00 69 1014.3
20260508023033 67 27 1.0 4.0 0.00 0.00 0.00 70 1017.3
20260508021548 67 28 2.0 5.0 0.00 0.00 0.00 68 1014.2
20260508021524 67 29 2.0 5.0 0.00 0.00 0.00 69 1017.2
20260508020048 67 24 2.0 5.0 0.00 0.00 0.00 68 1013.8
20260508020025 67 24 2.0 5.0 0.00 0.00 0.00 68 1017.0
20260508014547 67 5 2.0 9.0 0.00 0.00 0.00 67 1013.7
20260508014531 67 5 3.0 6.0 0.00 0.00 0.00 68 1016.8
20260508013045 67 36 4.0 10.0 0.00 0.00 0.00 67 1013.3
20260508013024 67 35 4.0 10.0 0.00 0.00 0.00 68 1016.5
20260508011553 68 339 1.0 5.0 0.00 0.00 0.00 69 1013.3
20260508011530 68 339 1.0 5.0 0.00 0.00 0.00 70 1016.5
20260508010057 68 90 4.0 14.0 0.00 0.00 0.00 68 1012.2
20260508010030 68 65 3.0 11.0 0.00 0.00 0.00 69 1015.4
20260508004556 68 87 6.0 15.0 0.00 0.00 0.00 67 1011.6
20260508004521 68 82 6.0 15.0 0.00 0.00 0.00 68 1014.5
20260508003045 68 113 5.0 15.0 0.00 0.00 0.00 67 1011.6
20260508003025 68 90 5.0 15.0 0.00 0.00 0.00 68 1014.5
20260508001544 68 67 3.0 11.0 0.00 0.00 0.00 67 1011.9
20260508001518 68 81 3.0 11.0 0.00 0.00 0.00 68 1015.0
20260508000045 69 69 6.0 13.0 0.00 0.00 0.00 66 1012.3
20260508000017 69 99 6.0 13.0 0.00 0.00 0.00 67 1015.5
20260507234546 69 69 5.0 9.0 0.00 0.00 0.00 65 1013.4
20260507234520 69 48 5.0 9.0 0.00 0.00 0.00 66 1016.3
20260507233046 69 19 3.0 13.0 0.00 0.00 0.00 65 1014.0
20260507233016 69 51 3.0 13.0 0.00 0.00 0.00 66 1017.0
20260507231550 70 113 3.0 10.0 0.00 0.00 0.00 66 1013.9
20260507231541 70 94 3.0 10.0 0.00 0.00 0.00 66 1016.9
20260507230043 70 352 5.0 11.0 0.00 0.00 0.00 66 1014.1
20260507230016 70 10 6.0 11.0 0.00 0.00 0.00 66 1017.2
20260507224556 70 40 3.0 11.0 0.00 0.00 0.00 66 1014.2
20260507224517 70 60 4.0 10.0 0.00 0.00 0.00 66 1017.2
20260507223041 70 60 6.0 13.0 0.00 0.00 0.00 65 1014.5
20260507223014 70 44 6.0 13.0 0.00 0.00 0.00 65 1017.4
20260507221545 70 19 5.0 12.0 0.00 0.00 0.00 65 1014.9
20260507221515 70 51 5.0 12.0 0.00 0.00 0.00 66 1017.9
20260507220046 70 47 6.0 15.0 0.00 0.00 0.00 67 1014.6
20260507220012 70 34 6.0 15.0 0.00 0.00 0.00 67 1017.4
20260507214543 69 49 5.0 11.0 0.00 0.00 0.00 69 1014.6
20260507214511 69 27 5.0 11.0 0.00 0.00 0.00 70 1017.5
20260507213057 69 42 3.0 12.0 0.00 0.00 0.00 70 1014.8
20260507213008 69 355 3.0 9.0 0.00 0.00 0.00 71 1017.6
20260507211607 70 5 4.0 10.0 0.00 0.00 0.00 71 1018.1
20260507211543 70 9 4.0 11.0 0.00 0.00 0.00 70 1015.1
20260507210048 70 23 5.0 11.0 0.00 0.00 0.00 70 1015.1
20260507210005 70 59 6.0 11.0 0.00 0.00 0.00 70 1018.2
20260507204553 70 26 6.0 16.0 0.00 0.00 0.00 70 1015.4
20260507204504 70 63 5.0 16.0 0.00 0.00 0.00 71 1018.4
20260507203044 70 34 7.0 14.0 0.00 0.00 0.00 71 1014.6
20260507203003 70 58 8.0 14.0 0.00 0.00 0.00 72 1017.5
20260507201544 70 16 5.0 17.0 0.00 0.00 0.00 73 1015.2
20260507201503 70 355 6.0 17.0 0.00 0.00 0.00 73 1018.1
20260507200057 68 5 3.0 12.0 0.00 0.00 0.00 77 1017.8
20260507200042 68 24 4.0 12.0 0.00 0.00 0.00 77 1014.9
20260507194555 67 36 7.0 14.0 0.00 0.00 0.00 76 1018.2
20260507194542 67 25 7.0 14.0 0.00 0.00 0.00 76 1015.3
20260507193107 67 67 4.0 13.0 0.00 0.00 0.00 77 1018.1
20260507193046 67 352 6.0 14.0 0.00 0.00 0.00 76 1015.2
20260507191553 67 339 4.0 13.0 0.00 0.00 0.00 77 1018.9
20260507191541 67 339 5.0 13.0 0.00 0.00 0.00 76 1016.0
20260507190100 66 5 5.0 14.0 0.00 0.00 0.00 78 1018.4
20260507190044 66 352 6.0 14.0 0.00 0.00 0.00 77 1015.5
20260507184549 65 49 7.0 16.0 0.00 0.00 0.00 78 1017.9
20260507184541 65 65 6.0 16.0 0.00 0.00 0.00 78 1015.1
20260507183050 65 65 5.0 13.0 0.00 0.00 0.00 78 1018.6
20260507183047 65 66 4.0 11.0 0.00 0.00 0.00 78 1015.7
20260507181548 64 34 4.0 9.0 0.00 0.00 0.00 79 1016.1
20260507180051 64 55 5.0 12.0 0.00 0.00 0.00 79 1019.5
20260507174546 64 94 5.0 13.0 0.00 0.00 0.00 78 1019.6
20260507174544 64 348 6.0 13.0 0.00 0.00 0.00 78 1016.8
20260507173052 65 94 7.0 13.0 0.00 0.00 0.00 78 1019.6
20260507173042 65 67 7.0 13.0 0.00 0.00 0.00 78 1016.9
20260507171551 65 62 5.0 13.0 0.00 0.00 0.00 78 1016.9
20260507171544 65 57 4.0 13.0 0.00 0.00 0.00 79 1019.6